N281DF KLEX-KJWN

Flight info

Callsign N281DF
Flight time 0h 49m
Altitude 4000
Route RYANS BICOL
Aircraft BE58/L-SDFGRY/C

Departure

Time 2026-04-24 01:06
Airport Blue Grass Airport (KLEX)

Arrival

Time 2026-04-24 01:56
Airport John C Tune Airport (KJWN)
Time Latitude Longitude Altitude Speed Heading
2026-04-24 00:50 38.03829 -84.61292 1050 ft 0 kts 84°
2026-04-24 00:54 38.03829 -84.61289 1050 ft 2 kts 84°
2026-04-24 00:54 38.03834 -84.61238 1050 ft 4 kts 83°
2026-04-24 00:55 38.03836 -84.61214 1050 ft 0 kts 83°
2026-04-24 01:01 38.03838 -84.61190 1050 ft 8 kts 76°
2026-04-24 01:02 38.03869 -84.61086 1050 ft 17 kts 69°
2026-04-24 01:02 38.03892 -84.60973 1050 ft 0 kts 83°
2026-04-24 01:03 38.03892 -84.60972 1050 ft 3 kts 83°
2026-04-24 01:03 38.03901 -84.60887 1050 ft 11 kts 61°
2026-04-24 01:04 38.03950 -84.60766 1050 ft 19 kts 82°
2026-04-24 01:04 38.03964 -84.60627 1049 ft 9 kts 83°
2026-04-24 01:04 38.03917 -84.60549 1050 ft 16 kts 167°
2026-04-24 01:04 38.03843 -84.60482 1050 ft 0 kts 132°
2026-04-24 01:05 38.03836 -84.60472 1050 ft 7 kts 132°
2026-04-24 01:05 38.03776 -84.60399 1051 ft 9 kts 169°
2026-04-24 01:06 38.03698 -84.60470 1052 ft 27 kts 221°
2026-04-24 01:06 38.03328 -84.60882 1066 ft 109 kts 221°
2026-04-24 01:06 38.02660 -84.61605 1329 ft 139 kts 219°
2026-04-24 01:06 38.01874 -84.62450 1580 ft 155 kts 219°
2026-04-24 01:07 38.01004 -84.63241 2026 ft 152 kts 210°
2026-04-24 01:07 38.00067 -84.63834 2420 ft 149 kts 207°
2026-04-24 01:07 37.99131 -84.64428 2726 ft 152 kts 208°
2026-04-24 01:07 37.98180 -84.65031 3052 ft 153 kts 208°
2026-04-24 01:08 37.97229 -84.65640 3397 ft 153 kts 208°
2026-04-24 01:08 37.96278 -84.66247 3743 ft 153 kts 208°
2026-04-24 01:08 37.95329 -84.66847 4105 ft 152 kts 207°
2026-04-24 01:08 37.94373 -84.67438 4430 ft 155 kts 207°
2026-04-24 01:09 37.93396 -84.68043 4735 ft 157 kts 206°
2026-04-24 01:09 37.92421 -84.68649 5026 ft 159 kts 206°
2026-04-24 01:09 37.91426 -84.69267 5324 ft 160 kts 206°
2026-04-24 01:09 37.90419 -84.69892 5623 ft 161 kts 206°
2026-04-24 01:10 37.89409 -84.70519 5921 ft 162 kts 206°
2026-04-24 01:10 37.88392 -84.71150 6225 ft 163 kts 206°
2026-04-24 01:10 37.87360 -84.71790 6485 ft 166 kts 206°
2026-04-24 01:10 37.86316 -84.72438 6727 ft 168 kts 206°
2026-04-24 01:11 37.85254 -84.73096 6970 ft 170 kts 206°
2026-04-24 01:11 37.84203 -84.73747 7211 ft 171 kts 206°
2026-04-24 01:11 37.83131 -84.74412 7453 ft 172 kts 206°
2026-04-24 01:11 37.82051 -84.75081 7699 ft 173 kts 206°
2026-04-24 01:12 37.80965 -84.75754 7948 ft 174 kts 206°
2026-04-24 01:12 37.79874 -84.76429 8196 ft 175 kts 206°
2026-04-24 01:12 37.78777 -84.77109 8450 ft 175 kts 206°
2026-04-24 01:12 37.77678 -84.77787 8703 ft 176 kts 206°
2026-04-24 01:13 37.76576 -84.78469 8960 ft 177 kts 206°
2026-04-24 01:13 37.75467 -84.79155 9217 ft 178 kts 206°
2026-04-24 01:13 37.74352 -84.79844 9477 ft 178 kts 206°
2026-04-24 01:13 37.73234 -84.80535 9738 ft 179 kts 206°
2026-04-24 01:14 37.72109 -84.81229 9990 ft 181 kts 206°
2026-04-24 01:14 37.70960 -84.81939 10022 ft 191 kts 206°
2026-04-24 01:14 37.69740 -84.82692 10031 ft 198 kts 206°
2026-04-24 01:14 37.68484 -84.83467 10034 ft 202 kts 206°
2026-04-24 01:15 37.67203 -84.84257 10009 ft 205 kts 206°
2026-04-24 01:15 37.65920 -84.85048 10009 ft 205 kts 206°
2026-04-24 01:15 37.64653 -84.85828 10011 ft 205 kts 206°
2026-04-24 01:15 37.63371 -84.86619 10010 ft 205 kts 206°
2026-04-24 01:16 37.62089 -84.87407 10011 ft 205 kts 206°
2026-04-24 01:16 37.60809 -84.88195 10011 ft 205 kts 206°
2026-04-24 01:16 37.59528 -84.88983 10005 ft 205 kts 206°
2026-04-24 01:16 37.58240 -84.89775 10005 ft 205 kts 206°
2026-04-24 01:17 37.56956 -84.90565 10004 ft 205 kts 206°
2026-04-24 01:17 37.55671 -84.91355 10004 ft 205 kts 206°
2026-04-24 01:17 37.54386 -84.92144 10003 ft 205 kts 206°
2026-04-24 01:17 37.53100 -84.92934 10003 ft 205 kts 206°
2026-04-24 01:18 37.51817 -84.93721 10002 ft 205 kts 206°
2026-04-24 01:18 37.50533 -84.94509 10003 ft 205 kts 206°
2026-04-24 01:18 37.49261 -84.95289 10000 ft 205 kts 206°
2026-04-24 01:18 37.47978 -84.96076 10001 ft 205 kts 206°
2026-04-24 01:19 37.46693 -84.96864 10001 ft 205 kts 206°
2026-04-24 01:19 37.45408 -84.97651 9996 ft 205 kts 206°
2026-04-24 01:19 37.44124 -84.98438 9995 ft 205 kts 206°
2026-04-24 01:19 37.42840 -84.99223 9995 ft 205 kts 206°
2026-04-24 01:20 37.41555 -85.00010 9998 ft 205 kts 206°
2026-04-24 01:20 37.40271 -85.00795 10010 ft 205 kts 206°
2026-04-24 01:20 37.39008 -85.01624 10009 ft 205 kts 214°
2026-04-24 01:20 37.38079 -85.02978 10011 ft 206 kts 234°
2026-04-24 01:21 37.37274 -85.04469 10012 ft 206 kts 233°
2026-04-24 01:21 37.36458 -85.05955 10020 ft 207 kts 233°
2026-04-24 01:21 37.35638 -85.07444 10023 ft 207 kts 233°
2026-04-24 01:21 37.34820 -85.08930 10025 ft 207 kts 233°
2026-04-24 01:22 37.34012 -85.10400 10024 ft 207 kts 233°
2026-04-24 01:22 37.33192 -85.11889 10026 ft 207 kts 233°
2026-04-24 01:22 37.32373 -85.13375 10027 ft 207 kts 233°
2026-04-24 01:22 37.31554 -85.14863 10028 ft 207 kts 233°
2026-04-24 01:23 37.30735 -85.16347 10033 ft 207 kts 233°
2026-04-24 01:23 37.29916 -85.17833 10032 ft 207 kts 233°
2026-04-24 01:23 37.29097 -85.19318 10034 ft 207 kts 233°
2026-04-24 01:23 37.28274 -85.20807 10034 ft 207 kts 233°
2026-04-24 01:24 37.27452 -85.22296 10034 ft 207 kts 233°
2026-04-24 01:24 37.26640 -85.23767 10035 ft 207 kts 233°
2026-04-24 01:24 37.25818 -85.25252 9989 ft 207 kts 233°
2026-04-24 01:24 37.24987 -85.26756 9990 ft 207 kts 233°
2026-04-24 01:25 37.24175 -85.28224 9983 ft 207 kts 232°
2026-04-24 01:25 37.23351 -85.29712 9986 ft 207 kts 233°
2026-04-24 01:25 37.22527 -85.31201 9985 ft 207 kts 233°
2026-04-24 01:25 37.21706 -85.32682 9986 ft 207 kts 233°
2026-04-24 01:26 37.20884 -85.34166 9988 ft 207 kts 233°
2026-04-24 01:26 37.20064 -85.35645 9989 ft 207 kts 233°
2026-04-24 01:26 37.19241 -85.37127 9988 ft 207 kts 232°
2026-04-24 01:26 37.18420 -85.38607 9988 ft 207 kts 233°
2026-04-24 01:27 37.17600 -85.40085 9988 ft 206 kts 232°
2026-04-24 01:27 37.16787 -85.41548 9988 ft 207 kts 233°
2026-04-24 01:27 37.15965 -85.43027 9990 ft 207 kts 233°
2026-04-24 01:27 37.15141 -85.44509 9986 ft 208 kts 233°
2026-04-24 01:28 37.14316 -85.45992 9978 ft 208 kts 233°
2026-04-24 01:28 37.13488 -85.47481 9982 ft 208 kts 233°
2026-04-24 01:28 37.12661 -85.48966 9991 ft 208 kts 233°
2026-04-24 01:28 37.11833 -85.50452 9992 ft 208 kts 233°
2026-04-24 01:29 37.11005 -85.51939 9990 ft 208 kts 233°
2026-04-24 01:29 37.10174 -85.53430 9991 ft 209 kts 233°
2026-04-24 01:29 37.09344 -85.54919 9992 ft 209 kts 233°
2026-04-24 01:29 37.08511 -85.56410 9992 ft 209 kts 233°
2026-04-24 01:30 37.07679 -85.57903 9991 ft 209 kts 233°
2026-04-24 01:30 37.06844 -85.59397 9991 ft 209 kts 233°
2026-04-24 01:30 37.06012 -85.60887 9992 ft 209 kts 233°
2026-04-24 01:30 37.05178 -85.62378 9996 ft 209 kts 233°
2026-04-24 01:31 37.04345 -85.63870 9997 ft 209 kts 233°
2026-04-24 01:31 37.03510 -85.65361 9997 ft 209 kts 233°
2026-04-24 01:31 37.02675 -85.66852 9997 ft 209 kts 233°
2026-04-24 01:31 37.01853 -85.68322 9997 ft 209 kts 233°
2026-04-24 01:32 37.01019 -85.69811 9994 ft 209 kts 233°
2026-04-24 01:32 37.00184 -85.71300 9995 ft 209 kts 233°
2026-04-24 01:32 36.99353 -85.72783 9995 ft 209 kts 233°
2026-04-24 01:32 36.98519 -85.74270 9996 ft 209 kts 233°
2026-04-24 01:33 36.97684 -85.75758 9998 ft 209 kts 233°
2026-04-24 01:33 36.96848 -85.77247 9998 ft 209 kts 233°
2026-04-24 01:33 36.96011 -85.78737 9999 ft 209 kts 233°
2026-04-24 01:33 36.95176 -85.80222 9999 ft 209 kts 233°
2026-04-24 01:34 36.94339 -85.81712 9999 ft 209 kts 233°
2026-04-24 01:34 36.93501 -85.83202 9999 ft 209 kts 233°
2026-04-24 01:34 36.92674 -85.84671 9999 ft 209 kts 233°
2026-04-24 01:34 36.91826 -85.86179 9993 ft 209 kts 233°
2026-04-24 01:35 36.90988 -85.87668 9995 ft 210 kts 233°
2026-04-24 01:35 36.90148 -85.89158 9994 ft 210 kts 233°
2026-04-24 01:35 36.89306 -85.90652 9995 ft 210 kts 233°
2026-04-24 01:35 36.88464 -85.92145 9994 ft 210 kts 233°
2026-04-24 01:36 36.87632 -85.93620 9994 ft 210 kts 233°
2026-04-24 01:36 36.86779 -85.95132 9994 ft 210 kts 233°
2026-04-24 01:36 36.85936 -85.96625 9995 ft 210 kts 233°
2026-04-24 01:36 36.85103 -85.98098 9995 ft 210 kts 233°
2026-04-24 01:37 36.84248 -85.99612 9991 ft 211 kts 233°
2026-04-24 01:37 36.83403 -86.01107 9990 ft 211 kts 233°
2026-04-24 01:37 36.82568 -86.02583 9990 ft 211 kts 233°
2026-04-24 01:37 36.81724 -86.04075 9992 ft 211 kts 233°
2026-04-24 01:38 36.80876 -86.05572 9995 ft 211 kts 233°
2026-04-24 01:38 36.80030 -86.07066 9994 ft 211 kts 233°
2026-04-24 01:38 36.79184 -86.08560 9993 ft 211 kts 233°
2026-04-24 01:38 36.78337 -86.10053 9993 ft 211 kts 233°
2026-04-24 01:39 36.77489 -86.11549 9994 ft 210 kts 233°
2026-04-24 01:39 36.76928 -86.12536 9994 ft 210 kts 233°
2026-04-24 01:39 36.75796 -86.14532 9994 ft 210 kts 233°
2026-04-24 01:39 36.74961 -86.16003 9993 ft 211 kts 233°
2026-04-24 01:40 36.74113 -86.17495 9996 ft 211 kts 233°
2026-04-24 01:40 36.73266 -86.18985 9993 ft 211 kts 233°
2026-04-24 01:40 36.72418 -86.20477 9992 ft 211 kts 233°
2026-04-24 01:40 36.71857 -86.21463 9993 ft 210 kts 233°
2026-04-24 01:41 36.71011 -86.22951 9990 ft 210 kts 233°
2026-04-24 01:41 36.70164 -86.24439 9991 ft 210 kts 233°
2026-04-24 01:41 36.69316 -86.25927 9989 ft 210 kts 233°
2026-04-24 01:41 36.68466 -86.27417 9989 ft 210 kts 233°
2026-04-24 01:42 36.67619 -86.28905 9990 ft 211 kts 233°
2026-04-24 01:42 36.66769 -86.30395 9990 ft 211 kts 233°
2026-04-24 01:42 36.65919 -86.31885 9990 ft 211 kts 233°
2026-04-24 01:42 36.65067 -86.33378 9991 ft 211 kts 233°
2026-04-24 01:43 36.64215 -86.34869 9991 ft 211 kts 233°
2026-04-24 01:43 36.63365 -86.36358 9991 ft 211 kts 233°
2026-04-24 01:43 36.62512 -86.37850 9991 ft 211 kts 233°
2026-04-24 01:43 36.61670 -86.39323 9991 ft 211 kts 233°
2026-04-24 01:44 36.60817 -86.40813 9992 ft 211 kts 233°
2026-04-24 01:44 36.59964 -86.42304 9992 ft 211 kts 233°
2026-04-24 01:44 36.59111 -86.43794 9998 ft 211 kts 233°
2026-04-24 01:44 36.58257 -86.45284 9998 ft 212 kts 233°
2026-04-24 01:45 36.57403 -86.46775 9998 ft 212 kts 233°
2026-04-24 01:45 36.56549 -86.48265 9998 ft 212 kts 233°
2026-04-24 01:45 36.55692 -86.49759 10008 ft 211 kts 233°
2026-04-24 01:45 36.54826 -86.51269 9873 ft 217 kts 233°
2026-04-24 01:46 36.53945 -86.52801 9669 ft 218 kts 233°
2026-04-24 01:46 36.53061 -86.54343 9434 ft 220 kts 233°
2026-04-24 01:46 36.52170 -86.55893 9177 ft 220 kts 233°
2026-04-24 01:46 36.51288 -86.57428 8933 ft 220 kts 233°
2026-04-24 01:47 36.50396 -86.58979 8679 ft 220 kts 233°
2026-04-24 01:47 36.49510 -86.60519 8397 ft 218 kts 232°
2026-04-24 01:47 36.48631 -86.62047 8096 ft 216 kts 232°
2026-04-24 01:47 36.47761 -86.63557 7801 ft 214 kts 232°
2026-04-24 01:48 36.46899 -86.65053 7497 ft 212 kts 232°
2026-04-24 01:48 36.46045 -86.66534 7204 ft 210 kts 232°
2026-04-24 01:48 36.45197 -86.68005 6908 ft 208 kts 232°
2026-04-24 01:48 36.44355 -86.69463 6622 ft 207 kts 232°
2026-04-24 01:49 36.43521 -86.70911 6330 ft 205 kts 232°
2026-04-24 01:49 36.42704 -86.72326 6030 ft 203 kts 232°
2026-04-24 01:49 36.41888 -86.73738 5711 ft 199 kts 232°
2026-04-24 01:49 36.41084 -86.75130 5409 ft 198 kts 231°
2026-04-24 01:50 36.40284 -86.76514 5132 ft 194 kts 231°
2026-04-24 01:50 36.39511 -86.77871 4886 ft 192 kts 232°
2026-04-24 01:50 36.38756 -86.79232 4635 ft 190 kts 231°
2026-04-24 01:50 36.37974 -86.80539 4378 ft 188 kts 230°
2026-04-24 01:51 36.37209 -86.81826 4130 ft 186 kts 229°
2026-04-24 01:51 36.36226 -86.82788 3879 ft 179 kts 200°
2026-04-24 01:51 36.35029 -86.83197 3636 ft 178 kts 195°
2026-04-24 01:51 36.33842 -86.83597 3352 ft 176 kts 195°
2026-04-24 01:52 36.32657 -86.83973 2996 ft 176 kts 195°
2026-04-24 01:52 36.31477 -86.84360 2660 ft 173 kts 194°
2026-04-24 01:52 36.30325 -86.84736 2392 ft 170 kts 195°
2026-04-24 01:52 36.29200 -86.85101 2114 ft 161 kts 195°
2026-04-24 01:53 36.28184 -86.85432 1973 ft 138 kts 195°
2026-04-24 01:53 36.27302 -86.85722 1964 ft 127 kts 195°
2026-04-24 01:53 36.26459 -86.85980 1964 ft 123 kts 194°
2026-04-24 01:53 36.25625 -86.86235 1862 ft 127 kts 196°
2026-04-24 01:54 36.24752 -86.86490 1702 ft 133 kts 195°
2026-04-24 01:54 36.23865 -86.86817 1509 ft 133 kts 197°
2026-04-24 01:54 36.23025 -86.87111 1273 ft 118 kts 194°
2026-04-24 01:54 36.22241 -86.87365 1084 ft 115 kts 195°
2026-04-24 01:55 36.21475 -86.87616 940 ft 113 kts 193°
2026-04-24 01:55 36.20730 -86.87859 837 ft 110 kts 195°
2026-04-24 01:55 36.19999 -86.88095 710 ft 107 kts 195°
2026-04-24 01:55 36.19292 -86.88327 570 ft 103 kts 195°
2026-04-24 01:56 36.18689 -86.88523 506 ft 71 kts 194°
2026-04-24 01:56 36.18316 -86.88647 503 ft 39 kts 194°
2026-04-24 01:56 36.18096 -86.88718 503 ft 29 kts 194°
2026-04-24 01:56 36.17940 -86.88756 504 ft 13 kts 142°
2026-04-24 01:57 36.17918 -86.88678 504 ft 0 kts 104°